Location: Bakov nad Jizerou
(50.4784°N, 14.9394°E)
Time: 23:46:21
(UTC+00:00)

Lacrosse 5 rocket - Pass Details

Date: 16 June 2021
Orbit: 459 x 634 km, 57.0° (Epoch: 23 July)

Event Time Altitude Azimuth Distance (km) Brightness Sun altitude
Rises 22:28:29 0° 251° (WSW) 2,507 4.6 -15.8°
Reaches altitude 10° 22:30:41 10° 256° (WSW) 1,619 3.6 -15.8°
Maximum altitude 22:34:13 53° 335° (NNW) 571 1.7 -15.9°
Drops below altitude 10° 22:37:45 10° 54° (NE) 1,612 4.1 -16.0°
Sets 22:39:55 0° 59° (ENE) 2,495 5.0 -16.0°
